World > North America > United States > Texas

Levi, Texas Regional Weather

Lat: 31.38N, Lon: 97.12W
Wx Zone: TXZ159Web Search
Levi Weather Warning NWS WEATHER ALERT FOR THE LEVI, TX AREA - Issued: 727 PM CDT Thu Apr 15 2021 Levi Weather Warning  

Our weather pages are very print friendly and they make great conversation starters.

Feedback


°F Click to change Levi hourly weather to Imperial units.Click to change Levi hourly weather to Metric units. °C
Levi Weather Map
UTC Time: 4/16/2021, 08:24
Your Time:

Levi, TX Regional Weather

Expires:202104160900;;630713
ASUS44 KFWD 160815
RWRTX 
NORTH TEXAS HOURLY WEATHER ROUNDUP
NATIONAL WEATHER SERVICE FORT WORTH TX
300 AM CDT FRI APR 16 2021

NOTE: "FAIR" INDICATES FEW OR NO CLOUDS BELOW 12,000 FEET WITH NO
SIGNIFICANT WEATHER AND/OR OBSTRUCTIONS TO VISIBILITY.


TXZ143>147-156>162-174-175-160900-
CENTRAL TEXAS
  
CITY           SKY/WX    TMP DP  RH WIND       PRES   REMARKS
WACO           CLOUDY    60  58  92 SE12      29.81F FOG              
WACO-MCGREGOR  CLOUDY    60  59  96 SE12      29.82F FOG              
HILLSBORO      CLOUDY    58  58 100 E10       29.83F FOG              
CORSICANA      LGT RAIN  60  57  89 E13       29.86F                  
MEXIA          CLOUDY    59  58  98 SE6       29.86F                  
HEARNE         CLOUDY    62  59  91 CALM      29.84F                  
CAMERON        CLOUDY    61  60  96 NE5       29.84S                  
TEMPLE         CLOUDY    60  60 100 E9        29.86R FOG              
KILLEEN        CLOUDY    59  58  97 E7        29.92F                  
KILLEEN-SKYLRK   N/A    N/A N/A N/A E8        29.84F FOG              
FORT HOOD      CLOUDY    59  58  97 E8        29.83F                  
GATESVILLE     FOG       59  59 100 SE6       29.83F VSB 1            
HAMILTON       CLOUDY    58  58 100 E5        29.85S FOG              
LAMPASAS       DRIZZLE   58  57  99 E5        29.82F                  
$$


SKY/WX - Weather  TMP - Temperature  DP - Dew Point  RH - Relative Humidity
WIND - Wind Direction/Speed PRES - Barometric Pressure VSB - Visibility
WCI - Wind Chill Index E13G22 Wind - East Wind 13 mph/Gusts of 22 mph